DELTA 1 DEB, 19359

Orbit data source: Space-Track

DELTA 1 DEB, 19359 is space debris in SSO originally from a launch on Sun, 05 Mar 1978 UTC launched from the Air Force Western Test Range (AFWTR). Debris objects in space refer to the collection of defunct objects orbiting the Earth. Examples of debris include non-operational satellites, rocket bodies, and fragments generated from explosions, collisions, or faulty payload assembly.

Loading next visibility...
Identifier
19359, 1978-026HM
Orbit
SSO
Country
Flag of USUS
Related business
Manufacturer
Unknown
Mission
Spacecraft
Bus & Motor
Unknown
Mass
Unknown
Launch date (UTC)
1978-03-05 (48 years ago)
Launch vehicle
Unknown
Launch site
Air Force Western Test Range (AFWTR)
Object type
Payload
Rocket body
Debris
Shape & HBR
Unknown shape, 0.1 m
Radar Cross Section
Small (<0.1 m²)

Expand to show TLE details & history
Last TLE update: 3 days ago

TLE from 3 days ago
0 DELTA 1 DEB
1 19359U 78026HM  26171.02100936  .00002023  00000-0  46886-3 0  9990
2 19359  98.5680 195.7871 0016775 170.7957 219.4005 14.56120792502853
Epoch: 2026-06-20T00:30Z
TLE epoch observation values (Epoch: 2026-06-20T00:30:15.208Z)
Latitude
29.75626°
Longitude
-84.93255°
Altitude
718.672 km
Speed
7.494 km/s
True Right ascension
12h 43m 29s
True Declination
29° 36' 27"
Sunlit
Object was in daylight at epoch
Visualization orbit readout
Latitude
Unknown
Longitude
Unknown
Altitude
Unknown
Speed
Unknown
Apparent Right ascension
Unknown
Apparent Declination
Unknown
Sunlit
N/A
Visualization observer readout
Local Sidereal Time
07:03:50
Azimuth
Unknown
Elevation
Unknown
Doppler factor
Unknown
Orbital elements
Apogee altitude
714.709 km
Perigee altitude
690.953 km
Semi-major axis
7,080.968 km
Eccentricity
0.00168
Inclination
98.568°
RAAN
195.7871°
Arg. of periapsis
170.7957°
True anomaly
219.27868°
Mean anomaly
219.4005°
Eccentric anomaly
219.33957°
Mean motion
3.64254 °/min
Orbital period
98.83 mins
BSTAR
0.00046886
Loading maneuver chart data...
Computing Atmospheric mass density...

Documentation

Showing up to 5 results
|